This is the latest recevied weather packets stored in our database for station/object NI0Z. If no packets are shown the sender has not sent any weather packets the latest 10 day(s).
| Time | Temp. | Humidity | Pressure | Rain* | Wind** | Luminosity | Snow |
|---|---|---|---|---|---|---|---|
| 1777968749 | 8.33° C | 89% | - | 1.78 mm | - | - | - |
| 1777968446 | 8.33° C | 89% | - | 4.83 mm | - | - | - |
| 1777968141 | 8.33° C | 89% | - | 7.87 mm | - | - | - |
| 1777967837 | 8.89° C | 89% | - | 6.6 mm | - | - | - |
| 1777967535 | 8.89° C | 90% | - | 7.87 mm | - | - | - |
| 1777967232 | 8.89° C | 90% | - | 8.89 mm | - | - | - |
| 1777966929 | 8.89° C | 89% | - | 10.67 mm | - | - | - |
| 1777966627 | 9.44° C | 90% | - | 10.67 mm | - | - | - |
| 1777966325 | 9.44° C | 88% | - | 7.87 mm | - | - | - |
| 1777966020 | 9.44° C | 87% | - | 8.89 mm | - | - | - |
| 1777965717 | 9.44° C | 86% | - | 7.11 mm | - | - | - |
| 1777965412 | 10° C | 84% | - | 6.6 mm | - | - | - |
| 1777965110 | 10° C | 84% | - | 4.83 mm | - | - | - |
| 1777964807 | 10.56° C | 84% | - | 3.05 mm | - | - | - |
| 1777964503 | 10.56° C | 83% | - | 1.27 mm | - | - | - |
| 1777964199 | 10.56° C | 83% | - | 0 mm | - | - | - |
| 1777963896 | 10.56° C | 83% | - | 1.78 mm | - | - | - |
| 1777963593 | 10.56° C | 83% | - | 1.78 mm | - | - | - |
| 1777963291 | 10.56° C | 84% | - | 0 mm | - | - | - |
| 1777962988 | 11.67° C | 88% | - | 0 mm | - | - | - |
| 1777962684 | 11.67° C | 88% | - | 0 mm | - | - | - |
| 1777962381 | 12.22° C | 90% | - | 0 mm | - | - | - |
| 1777962078 | 12.22° C | 89% | - | 1.27 mm | - | - | - |
| 1777961775 | 12.22° C | 88% | - | 1.27 mm | - | - | - |
| 1777961474 | 12.22° C | 89% | - | 1.78 mm | - | - | - |
* Rain latest hour (hover to see other rain measurements)
** Current wind speed in m/s (hover to see current wind gust speed)